NOAA 16 DEB, 42426

Orbit data source: Space-Track

NOAA 16 DEB, 42426 is space debris in SSO originally from a launch on Thu, 21 Sep 2000 UTC launched from the Air Force Western Test Range (AFWTR). Debris objects in space refer to the collection of defunct objects orbiting the Earth. Examples of debris include non-operational satellites, rocket bodies, and fragments generated from explosions, collisions, or faulty payload assembly.

Loading next visibility...
Identifier
42426, 2000-055TW
Orbit
SSO
Country
Flag of USUS
Related business
Manufacturer
Unknown
Mission
Spacecraft
Bus & Motor
Unknown
Mass
Unknown
Launch date (UTC)
2000-09-21 (25 years ago)
Launch vehicle
Unknown
Launch site
Air Force Western Test Range (AFWTR)
Object type
Payload
Rocket body
Debris
Shape & HBR
Unknown shape, 0.1 m
Radar Cross Section
Small (<0.1 m²)

Expand to show TLE details & history
Last TLE update: 2 weeks ago

TLE from 2 weeks ago
0 NOAA 16 DEB
1 42426U 00055TW  26022.85575336  .00005163  00000-0  22336-2 0  9995
2 42426  98.5888  49.0661 0013878 206.3404 153.7071 14.24706724487569
Epoch: 2026-01-22T20:32Z
TLE epoch observation values (Epoch: 2026-01-22T20:32:17.090Z)
Latitude
-0.00004°
Longitude
-21.20803°
Altitude
821.351 km
Speed
7.438 km/s
True Right ascension
03h 16m 15s
True Declination
0° 00' 00"
Sunlit
Object was in daylight at epoch
Visualization orbit readout
Latitude
Unknown
Longitude
Unknown
Altitude
Unknown
Speed
Unknown
Apparent Right ascension
Unknown
Apparent Declination
Unknown
Sunlit
N/A
Visualization observer readout
Local Sidereal Time
12:03:34
Azimuth
Unknown
Elevation
Unknown
Doppler factor
Unknown
Orbital elements
Apogee altitude
816.596 km
Perigee altitude
796.654 km
Semi-major axis
7,184.762 km
Eccentricity
0.00139
Inclination
98.5888°
RAAN
49.0661°
Arg. of periapsis
206.3404°
True anomaly
153.77743°
Mean anomaly
153.7071°
Eccentric anomaly
153.74228°
Mean motion
3.56389 °/min
Orbital period
101.01 mins
BSTAR
0.0022336
Loading maneuver chart data...
Computing Atmospheric mass density...
Loading historical data...
Loading historical data...
Loading historical data...
Loading historical data...
Loading historical data...
Loading historical data...
Loading historical data...

Documentation

Showing up to 5 results
|